Date String (YYYY-MM-DD hh:mm:ss) UTC,Instrument flags,Ambient pressure (hPa),Sample flow (lpm),Bypass flow (lpm),Sample temperature (°C),Ambient temperature (°C),ASC tube jacket temperature (°C),LED temperature (°C),Box temperature (°C),Sample RH (%),Span deviation,Mass concentration (μg/m³),Mass concentration (μg/m³),Mass concentration (μg/m³)
DateTimeUTC,F1_M11,P_M11,Q1_M11,Q2_M11,T1_M11,T2_M11,T3_M11,T4_M11,T5_M11,U1_M11,ZSPAN_M11,X0_M11,X2_M11,X1_M11
2022-06-12 10:00:00,,0821.6,5.01,0.00,29.6,28.7,00.0,38.4,31.5,15.8,0000.0,0012.82,0004.75,0003.49
2022-06-12 10:01:00,,0821.6,4.99,0.00,29.6,28.8,00.0,38.5,31.6,15.8,0000.0,0012.69,0004.72,0003.47
2022-06-12 10:02:00,,0821.7,4.99,0.00,29.7,28.8,00.0,38.5,31.6,16.2,0000.0,0012.29,0004.71,0003.46
2022-06-12 10:03:00,,0821.7,5.01,0.00,29.7,28.8,00.0,38.5,31.6,16.9,0000.0,0013.27,0004.76,0003.46
2022-06-12 10:04:00,,0821.7,5.02,0.00,29.7,28.9,00.0,38.5,31.6,16.7,0000.0,0013.58,0004.76,0003.48
2022-06-12 10:05:00,,0821.6,4.99,0.00,29.7,28.9,00.0,38.5,31.7,16.2,0000.0,0014.30,0004.76,0003.47
2022-06-12 10:06:00,,0821.7,5.00,0.00,29.7,28.9,00.0,38.5,31.7,15.9,0000.0,0014.76,0004.74,0003.46
2022-06-12 10:07:00,,0821.6,5.01,0.00,29.8,28.6,00.0,38.5,31.6,16.0,0000.0,0014.60,0004.77,0003.46
2022-06-12 10:08:00,,0821.7,4.99,0.00,29.7,27.7,00.0,38.4,31.4,16.3,0000.0,0015.15,0004.82,0003.47
2022-06-12 10:09:00,,0821.7,5.00,0.00,29.6,27.5,00.0,38.4,31.3,16.5,0000.0,0015.06,0004.77,0003.47
2022-06-12 10:10:00,,0821.7,5.00,0.00,29.5,27.5,00.0,38.4,31.2,16.6,0000.0,0015.23,0004.75,0003.48
2022-06-12 10:11:00,,0821.7,5.00,0.00,29.5,27.5,00.0,38.4,31.2,16.7,0000.0,0015.35,0004.77,0003.49
2022-06-12 10:12:00,,0821.7,5.02,0.00,29.4,27.6,00.0,38.4,31.2,16.6,0000.0,0015.56,0004.81,0003.51
2022-06-12 10:13:00,,0821.7,5.00,0.00,29.4,27.7,00.0,38.4,31.2,16.6,0000.0,0015.45,0004.82,0003.54
2022-06-12 10:14:00,,0821.7,5.00,0.00,29.4,27.9,00.0,38.4,31.3,16.8,0000.0,0014.69,0004.81,0003.56
2022-06-12 10:15:00,,0821.7,5.00,0.00,29.4,28.0,00.0,38.4,31.3,16.8,0000.0,0013.99,0004.85,0003.57
2022-06-12 10:16:00,,0821.7,5.00,0.00,29.4,28.1,00.0,38.4,31.3,16.8,0000.0,0013.74,0004.89,0003.59
2022-06-12 10:17:00,,0821.7,5.00,0.00,29.4,28.2,00.0,38.4,31.3,16.6,0000.0,0013.07,0004.90,0003.62
2022-06-12 10:18:00,,0821.7,4.99,0.00,29.4,28.3,00.0,38.4,31.3,16.4,0000.0,0012.87,0004.91,0003.63
2022-06-12 10:19:00,,0821.7,5.01,0.00,29.5,28.3,00.0,38.4,31.4,16.4,0000.0,0012.51,0004.90,0003.64
2022-06-12 10:20:00,,0821.7,4.99,0.00,29.5,28.4,00.0,38.4,31.4,16.4,0000.0,0012.34,0004.93,0003.65
2022-06-12 10:21:00,,0821.7,5.00,0.00,29.5,28.5,00.0,38.4,31.4,16.3,0000.0,0012.20,0004.94,0003.64
2022-06-12 10:22:00,,0821.7,5.00,0.00,29.5,28.5,00.0,38.4,31.4,16.3,0000.0,0011.85,0004.94,0003.64
2022-06-12 10:23:00,,0821.7,5.00,0.00,29.5,28.6,00.0,38.4,31.5,16.3,0000.0,0011.54,0004.96,0003.65
2022-06-12 10:24:00,,0821.7,4.99,0.00,29.6,28.6,00.0,38.4,31.5,16.4,0000.0,0011.82,0004.99,0003.67
2022-06-12 10:25:00,,0821.7,5.00,0.00,29.6,28.7,00.0,38.4,31.5,16.2,0000.0,0012.04,0005.00,0003.67
2022-06-12 10:26:00,,0821.7,5.00,0.00,29.6,28.7,00.0,38.4,31.5,16.1,0000.0,0011.53,0004.97,0003.66
2022-06-12 10:27:00,,0821.7,5.00,0.00,29.6,28.8,00.0,38.4,31.6,16.1,0000.0,0011.59,0004.93,0003.64
2022-06-12 10:28:00,,0821.7,5.01,0.00,29.6,28.8,00.0,38.5,31.6,16.1,0000.0,0012.03,0004.96,0003.63
2022-06-12 10:29:00,,0821.7,5.00,0.00,29.7,28.8,00.0,38.5,31.6,16.3,0000.0,0012.08,0004.94,0003.63
2022-06-12 10:30:00,,0821.7,4.99,0.00,29.7,28.9,00.0,38.5,31.7,16.0,0000.0,0011.95,0004.91,0003.62
2022-06-12 10:31:00,,0821.7,5.00,0.00,29.7,28.9,00.0,38.5,31.7,15.9,0000.0,0012.42,0004.91,0003.61
2022-06-12 10:32:00,,0821.7,5.01,0.00,29.7,28.6,00.0,38.5,31.6,16.1,0000.0,0012.43,0004.89,0003.61
2022-06-12 10:33:00,,0821.7,5.00,0.00,29.7,27.8,00.0,38.4,31.4,16.2,0000.0,0012.60,0004.94,0003.62
2022-06-12 10:34:00,,0821.7,5.00,0.00,29.6,27.6,00.0,38.4,31.3,16.4,0000.0,0013.44,0004.91,0003.63
2022-06-12 10:35:00,,0821.7,5.00,0.00,29.5,27.5,00.0,38.4,31.2,16.5,0000.0,0014.08,0004.92,0003.62
2022-06-12 10:36:00,,0821.7,5.00,0.00,29.5,27.5,00.0,38.4,31.2,16.6,0000.0,0014.02,0004.95,0003.64
2022-06-12 10:37:00,,0821.7,5.01,0.00,29.4,27.6,00.0,38.4,31.2,16.7,0000.0,0014.17,0004.95,0003.66
2022-06-12 10:38:00,,0821.7,4.98,0.00,29.4,27.7,00.0,38.4,31.2,16.6,0000.0,0013.95,0004.96,0003.68
2022-06-12 10:39:00,,0821.7,5.00,0.00,29.4,27.9,00.0,38.4,31.2,16.6,0000.0,0013.66,0004.93,0003.69
2022-06-12 10:40:00,,0821.7,4.99,0.00,29.4,28.0,00.0,38.4,31.3,16.5,0000.0,0013.31,0004.97,0003.70
2022-06-12 10:41:00,,0821.7,5.00,0.00,29.4,28.1,00.0,38.3,31.3,16.5,0000.0,0013.22,0004.99,0003.71
2022-06-12 10:42:00,,0821.7,5.00,0.00,29.4,28.2,00.0,38.3,31.3,16.4,0000.0,0013.06,0005.03,0003.72
2022-06-12 10:43:00,,0821.7,5.00,0.00,29.4,28.3,00.0,38.3,31.3,16.4,0000.0,0013.39,0005.09,0003.74
2022-06-12 10:44:00,,0821.7,5.01,0.00,29.5,28.3,00.0,38.4,31.4,16.3,0000.0,0013.36,0005.07,0003.73
2022-06-12 10:45:00,,0821.7,5.01,0.00,29.5,28.4,00.0,38.4,31.4,16.2,0000.0,0012.66,0005.07,0003.71
2022-06-12 10:46:00,,0821.7,5.00,0.00,29.5,28.5,00.0,38.4,31.4,16.1,0000.0,0012.01,0005.03,0003.70
2022-06-12 10:47:00,,0821.7,5.00,0.00,29.5,28.5,00.0,38.4,31.4,16.2,0000.0,0011.89,0004.97,0003.67
2022-06-12 10:48:00,,0821.7,5.00,0.00,29.5,28.6,00.0,38.4,31.5,16.1,0000.0,0011.78,0004.97,0003.64
2022-06-12 10:49:00,,0821.7,5.00,0.00,29.5,28.6,00.0,38.4,31.5,16.1,0000.0,0011.61,0005.00,0003.64
2022-06-12 10:50:00,,0821.7,5.01,0.00,29.6,28.7,00.0,38.4,31.5,16.2,0000.0,0011.66,0005.01,0003.63
2022-06-12 10:51:00,,0821.7,5.00,0.00,29.6,28.7,00.0,38.4,31.5,16.1,0000.0,0012.04,0004.98,0003.62
2022-06-12 10:52:00,,0821.7,5.00,0.00,29.6,28.7,00.0,38.4,31.5,16.0,0000.0,0012.38,0004.97,0003.61
2022-06-12 10:53:00,,0821.7,4.99,0.00,29.6,28.8,00.0,38.4,31.6,16.1,0000.0,0012.28,0004.97,0003.60
2022-06-12 10:54:00,,0821.7,4.99,0.00,29.6,28.8,00.0,38.5,31.6,16.1,0000.0,0012.10,0004.96,0003.60
2022-06-12 10:55:00,,0821.7,5.00,0.00,29.7,28.8,00.0,38.5,31.6,16.1,0000.0,0012.05,0004.96,0003.60
2022-06-12 10:56:00,,0821.7,5.01,0.00,29.7,28.8,00.0,38.5,31.6,16.1,0000.0,0011.63,0004.93,0003.60
2022-06-12 10:57:00,,0821.7,5.00,0.00,29.7,28.9,00.0,38.5,31.6,16.2,0000.0,0011.70,0004.91,0003.60
2022-06-12 10:58:00,,0821.7,4.99,0.00,29.7,28.9,00.0,38.5,31.7,16.2,0000.0,0011.93,0004.93,0003.61
2022-06-12 10:59:00,,0821.7,4.99,0.00,29.7,28.9,00.0,38.5,31.7,16.1,0000.0,0012.07,0004.97,0003.62
